EZY897 EGKK-EGJJ

Flight info

Callsign EZY897
Flight time 0h 38m
Altitude 26000
Route IMVUR N63 LELNA
Aircraft A319/M-SDE3FGHIRWY/LB1

Departure

Time 2026-05-07 19:11
Airport London Gatwick Airport (EGKK)

Arrival

Time 2026-05-07 19:49
Airport Jersey Airport (EGJJ)
Time Latitude Longitude Altitude Speed Heading
2026-05-07 18:42 51.15639 -0.17853 205 ft 0 kts 168°
2026-05-07 18:54 51.15659 -0.17860 215 ft 4 kts 171°
2026-05-07 18:55 51.15686 -0.17864 209 ft 4 kts 182°
2026-05-07 18:55 51.15711 -0.17855 212 ft 4 kts 226°
2026-05-07 18:55 51.15718 -0.17838 213 ft 1 kts 255°
2026-05-07 18:55 51.15718 -0.17836 213 ft 0 kts 255°
2026-05-07 19:01 51.15716 -0.17851 209 ft 15 kts 255°
2026-05-07 19:01 51.15686 -0.18103 209 ft 13 kts 270°
2026-05-07 19:02 51.15686 -0.18117 205 ft 0 kts 270°
2026-05-07 19:02 51.15677 -0.18166 208 ft 11 kts 253°
2026-05-07 19:02 51.15657 -0.18227 207 ft 4 kts 226°
2026-05-07 19:02 51.15621 -0.18239 207 ft 8 kts 168°
2026-05-07 19:03 51.15539 -0.18212 205 ft 18 kts 168°
2026-05-07 19:03 51.15479 -0.18190 205 ft 0 kts 166°
2026-05-07 19:03 51.15472 -0.18188 205 ft 2 kts 166°
2026-05-07 19:03 51.15441 -0.18172 209 ft 10 kts 163°
2026-05-07 19:04 51.15296 -0.18118 205 ft 30 kts 168°
2026-05-07 19:04 51.15168 -0.18077 205 ft 25 kts 178°
2026-05-07 19:04 51.15103 -0.18280 204 ft 16 kts 259°
2026-05-07 19:04 51.15084 -0.18420 211 ft 23 kts 257°
2026-05-07 19:05 51.15039 -0.18744 213 ft 34 kts 257°
2026-05-07 19:05 51.14987 -0.19124 206 ft 36 kts 258°
2026-05-07 19:05 51.14930 -0.19529 207 ft 39 kts 257°
2026-05-07 19:05 51.14870 -0.19973 211 ft 43 kts 257°
2026-05-07 19:06 51.14803 -0.20445 204 ft 37 kts 258°
2026-05-07 19:06 51.14728 -0.21000 205 ft 22 kts 257°
2026-05-07 19:06 51.14696 -0.21220 211 ft 12 kts 257°
2026-05-07 19:07 51.14690 -0.21263 209 ft 1 kts 256°
2026-05-07 19:07 51.14686 -0.21288 205 ft 0 kts 254°
2026-05-07 19:07 51.14684 -0.21299 214 ft 2 kts 254°
2026-05-07 19:08 51.14660 -0.21332 208 ft 14 kts 203°
2026-05-07 19:08 51.14534 -0.21259 206 ft 6 kts 123°
2026-05-07 19:08 51.14533 -0.21256 206 ft 1 kts 121°
2026-05-07 19:08 51.14523 -0.21147 207 ft 19 kts 81°
2026-05-07 19:09 51.14542 -0.20993 213 ft 0 kts 80°
2026-05-07 19:09 51.14545 -0.20981 210 ft 8 kts 71°
2026-05-07 19:09 51.14551 -0.20941 208 ft 0 kts 78°
2026-05-07 19:10 51.14591 -0.20657 211 ft 81 kts 78°
2026-05-07 19:10 51.14785 -0.19243 212 ft 174 kts 77°
2026-05-07 19:10 51.15093 -0.17120 638 ft 210 kts 76°
2026-05-07 19:11 51.15465 -0.14792 1597 ft 221 kts 77°
2026-05-07 19:11 51.15835 -0.12258 2257 ft 245 kts 79°
2026-05-07 19:11 51.16212 -0.09365 2772 ft 291 kts 79°
2026-05-07 19:11 51.16960 -0.06187 3291 ft 307 kts 57°
2026-05-07 19:12 51.18450 -0.04206 3772 ft 261 kts 22°
2026-05-07 19:12 51.20118 -0.03963 4014 ft 231 kts 351°
2026-05-07 19:12 51.21525 -0.04870 4059 ft 212 kts 317°
2026-05-07 19:12 51.22419 -0.07026 4077 ft 269 kts 290°
2026-05-07 19:13 51.22692 -0.09889 4050 ft 258 kts 264°
2026-05-07 19:13 51.22411 -0.12922 4094 ft 308 kts 259°
2026-05-07 19:13 51.22015 -0.16487 4371 ft 330 kts 259°
2026-05-07 19:13 51.21594 -0.20100 4658 ft 333 kts 259°
2026-05-07 19:14 51.21167 -0.23733 4943 ft 334 kts 259°
2026-05-07 19:14 51.20738 -0.27379 5227 ft 335 kts 259°
2026-05-07 19:14 51.20311 -0.31042 5508 ft 336 kts 259°
2026-05-07 19:14 51.19884 -0.34715 5795 ft 337 kts 259°
2026-05-07 19:15 51.19438 -0.38385 6011 ft 338 kts 258°
2026-05-07 19:15 51.18967 -0.42064 6059 ft 338 kts 258°
2026-05-07 19:15 51.18481 -0.45725 6067 ft 338 kts 258°
2026-05-07 19:15 51.17987 -0.49396 6097 ft 338 kts 258°
2026-05-07 19:16 51.17465 -0.53045 6147 ft 338 kts 254°
2026-05-07 19:16 51.16685 -0.56584 6197 ft 338 kts 249°
2026-05-07 19:16 51.15799 -0.60047 6252 ft 338 kts 247°
2026-05-07 19:16 51.14862 -0.63459 6856 ft 337 kts 246°
2026-05-07 19:17 51.13906 -0.66885 7733 ft 339 kts 246°
2026-05-07 19:17 51.12948 -0.70329 8650 ft 341 kts 246°
2026-05-07 19:17 51.11995 -0.73800 9586 ft 343 kts 247°
2026-05-07 19:17 51.11048 -0.77299 10479 ft 345 kts 247°
2026-05-07 19:18 51.10099 -0.80831 11357 ft 350 kts 247°
2026-05-07 19:18 51.09139 -0.84415 12251 ft 355 kts 246°
2026-05-07 19:18 51.08160 -0.88061 13189 ft 361 kts 246°
2026-05-07 19:18 51.07168 -0.91761 14104 ft 366 kts 246°
2026-05-07 19:19 51.06161 -0.95506 14961 ft 371 kts 246°
2026-05-07 19:19 51.05140 -0.99289 15840 ft 374 kts 246°
2026-05-07 19:19 51.04106 -1.03107 16748 ft 377 kts 246°
2026-05-07 19:19 51.03061 -1.06951 17614 ft 382 kts 246°
2026-05-07 19:20 51.01983 -1.10908 17948 ft 399 kts 246°
2026-05-07 19:20 51.00862 -1.15005 18056 ft 407 kts 246°
2026-05-07 19:20 50.99728 -1.19140 18064 ft 409 kts 246°
2026-05-07 19:20 50.98593 -1.23287 18062 ft 410 kts 246°
2026-05-07 19:21 50.97465 -1.27382 18063 ft 410 kts 245°
2026-05-07 19:21 50.96024 -1.31268 18063 ft 409 kts 234°
2026-05-07 19:21 50.94107 -1.34675 18063 ft 409 kts 223°
2026-05-07 19:21 50.91859 -1.37360 18062 ft 410 kts 212°
2026-05-07 19:22 50.89342 -1.39454 18064 ft 410 kts 207°
2026-05-07 19:22 50.86780 -1.41482 18065 ft 410 kts 207°
2026-05-07 19:22 50.84229 -1.43507 18063 ft 410 kts 207°
2026-05-07 19:22 50.81682 -1.45537 18058 ft 410 kts 207°
2026-05-07 19:23 50.79132 -1.47571 18059 ft 410 kts 207°
2026-05-07 19:23 50.76583 -1.49601 18059 ft 410 kts 207°
2026-05-07 19:23 50.74036 -1.51626 18054 ft 410 kts 207°
2026-05-07 19:23 50.71489 -1.53648 18056 ft 410 kts 207°
2026-05-07 19:24 50.68939 -1.55673 18058 ft 410 kts 207°
2026-05-07 19:24 50.66394 -1.57691 18058 ft 410 kts 207°
2026-05-07 19:24 50.63844 -1.59711 18056 ft 410 kts 207°
2026-05-07 19:24 50.61299 -1.61723 18057 ft 410 kts 207°
2026-05-07 19:25 50.58749 -1.63732 18055 ft 410 kts 207°
2026-05-07 19:25 50.56197 -1.65735 18054 ft 410 kts 207°
2026-05-07 19:25 50.53651 -1.67731 18055 ft 409 kts 207°
2026-05-07 19:25 50.51101 -1.69728 18050 ft 409 kts 207°
2026-05-07 19:26 50.48550 -1.71720 18049 ft 409 kts 207°
2026-05-07 19:26 50.45999 -1.73711 18048 ft 409 kts 207°
2026-05-07 19:26 50.43453 -1.75697 18046 ft 409 kts 207°
2026-05-07 19:26 50.40902 -1.77686 18045 ft 409 kts 207°
2026-05-07 19:27 50.38355 -1.79675 18045 ft 409 kts 207°
2026-05-07 19:27 50.35808 -1.81664 18048 ft 409 kts 207°
2026-05-07 19:27 50.33260 -1.83649 18046 ft 409 kts 207°
2026-05-07 19:27 50.30710 -1.85626 18044 ft 409 kts 207°
2026-05-07 19:28 50.28161 -1.87597 18044 ft 409 kts 207°
2026-05-07 19:28 50.25617 -1.89566 18221 ft 411 kts 207°
2026-05-07 19:28 50.23066 -1.91541 18048 ft 409 kts 207°
2026-05-07 19:28 50.20521 -1.93512 18039 ft 408 kts 207°
2026-05-07 19:29 50.17976 -1.95482 18042 ft 408 kts 207°
2026-05-07 19:29 50.15432 -1.97450 18042 ft 408 kts 207°
2026-05-07 19:29 50.12891 -1.99414 18041 ft 408 kts 207°
2026-05-07 19:29 50.10379 -2.01350 18044 ft 408 kts 207°
2026-05-07 19:30 50.07839 -2.03306 18042 ft 407 kts 207°
2026-05-07 19:30 50.05298 -2.05259 18042 ft 407 kts 207°
2026-05-07 19:30 50.02755 -2.07204 18041 ft 407 kts 207°
2026-05-07 19:30 50.00213 -2.09144 18037 ft 407 kts 207°
2026-05-07 19:31 49.97599 -2.10836 18040 ft 408 kts 197°
2026-05-07 19:31 49.94816 -2.11782 18032 ft 409 kts 193°
2026-05-07 19:31 49.92039 -2.12698 17216 ft 406 kts 193°
2026-05-07 19:31 49.89295 -2.13640 16193 ft 402 kts 193°
2026-05-07 19:32 49.86583 -2.14588 15206 ft 398 kts 193°
2026-05-07 19:32 49.83888 -2.15530 14244 ft 396 kts 193°
2026-05-07 19:32 49.81208 -2.16463 13242 ft 393 kts 193°
2026-05-07 19:32 49.78570 -2.17373 12202 ft 379 kts 193°
2026-05-07 19:33 49.76071 -2.18224 11210 ft 357 kts 193°
2026-05-07 19:33 49.73709 -2.19022 10342 ft 338 kts 193°
2026-05-07 19:33 49.71444 -2.19788 9579 ft 330 kts 193°
2026-05-07 19:33 49.69228 -2.20603 8776 ft 325 kts 194°
2026-05-07 19:34 49.67075 -2.21528 8318 ft 318 kts 196°
2026-05-07 19:34 49.64945 -2.22507 8074 ft 315 kts 197°
2026-05-07 19:34 49.62929 -2.23450 8017 ft 290 kts 197°
2026-05-07 19:34 49.61052 -2.24321 7730 ft 277 kts 196°
2026-05-07 19:35 49.59224 -2.25156 7296 ft 271 kts 196°
2026-05-07 19:35 49.57432 -2.25965 6869 ft 265 kts 195°
2026-05-07 19:35 49.55671 -2.26754 6432 ft 261 kts 195°
2026-05-07 19:35 49.53931 -2.27529 5967 ft 256 kts 195°
2026-05-07 19:36 49.52268 -2.28270 5546 ft 243 kts 195°
2026-05-07 19:36 49.50673 -2.28978 5215 ft 233 kts 195°
2026-05-07 19:36 49.49153 -2.29653 4969 ft 222 kts 195°
2026-05-07 19:36 49.47698 -2.30300 4709 ft 214 kts 195°
2026-05-07 19:37 49.46283 -2.30928 4448 ft 210 kts 195°
2026-05-07 19:37 49.44880 -2.31549 4192 ft 209 kts 194°
2026-05-07 19:37 49.43486 -2.32165 3933 ft 208 kts 194°
2026-05-07 19:37 49.42097 -2.32775 3669 ft 207 kts 194°
2026-05-07 19:38 49.40696 -2.33388 3439 ft 226 kts 194°
2026-05-07 19:38 49.38904 -2.34165 3176 ft 295 kts 194°
2026-05-07 19:38 49.37003 -2.35005 3014 ft 271 kts 195°
2026-05-07 19:38 49.35282 -2.35774 3025 ft 244 kts 194°
2026-05-07 19:39 49.33726 -2.36467 3031 ft 222 kts 194°
2026-05-07 19:39 49.32282 -2.37106 3035 ft 224 kts 194°
2026-05-07 19:39 49.30640 -2.37820 3046 ft 277 kts 194°
2026-05-07 19:39 49.28776 -2.38628 3026 ft 271 kts 195°
2026-05-07 19:40 49.27000 -2.39411 3024 ft 257 kts 195°
2026-05-07 19:40 49.25289 -2.40165 3028 ft 255 kts 195°
2026-05-07 19:40 49.23603 -2.40906 3032 ft 256 kts 194°
2026-05-07 19:40 49.21869 -2.41147 3032 ft 240 kts 169°
2026-05-07 19:41 49.20479 -2.40111 3045 ft 204 kts 142°
2026-05-07 19:41 49.19653 -2.38464 2292 ft 196 kts 116°
2026-05-07 19:41 49.19442 -2.36470 1885 ft 182 kts 97°
2026-05-07 19:41 49.19547 -2.34639 1720 ft 164 kts 82°
2026-05-07 19:42 49.19742 -2.33014 1595 ft 148 kts 86°
2026-05-07 19:42 49.19890 -2.31479 1374 ft 143 kts 84°
2026-05-07 19:42 49.19998 -2.30001 1181 ft 133 kts 89°
2026-05-07 19:42 49.20085 -2.28678 1071 ft 115 kts 84°
2026-05-07 19:43 49.20175 -2.27473 952 ft 119 kts 86°
2026-05-07 19:43 49.20253 -2.26154 791 ft 127 kts 83°
2026-05-07 19:43 49.20355 -2.24798 731 ft 129 kts 82°
2026-05-07 19:43 49.20472 -2.23447 671 ft 131 kts 84°
2026-05-07 19:44 49.20589 -2.22037 522 ft 133 kts 80°
2026-05-07 19:44 49.20726 -2.20688 385 ft 123 kts 77°
2026-05-07 19:44 49.20888 -2.19429 1184 ft 118 kts 76°
2026-05-07 19:44 49.21575 -2.18837 1937 ft 136 kts 354°
2026-05-07 19:45 49.22382 -2.19779 2615 ft 169 kts 305°
2026-05-07 19:45 49.22825 -2.21712 2927 ft 218 kts 274°
2026-05-07 19:45 49.22928 -2.24286 3158 ft 270 kts 264°
2026-05-07 19:45 49.22467 -2.27363 2796 ft 322 kts 250°
2026-05-07 19:46 49.21800 -2.30612 2069 ft 309 kts 250°
2026-05-07 19:46 49.21175 -2.33546 1196 ft 271 kts 245°
2026-05-07 19:46 49.20073 -2.35241 1193 ft 197 kts 175°
2026-05-07 19:46 49.19270 -2.34267 1506 ft 163 kts 93°
2026-05-07 19:47 49.19561 -2.32432 1119 ft 192 kts 77°
2026-05-07 19:47 49.19880 -2.30373 858 ft 202 kts 79°
2026-05-07 19:47 49.20106 -2.28274 907 ft 194 kts 83°
2026-05-07 19:47 49.20280 -2.26286 871 ft 186 kts 84°
2026-05-07 19:48 49.20416 -2.24312 726 ft 192 kts 83°
2026-05-07 19:48 49.20574 -2.22223 459 ft 202 kts 83°
2026-05-07 19:48 49.20746 -2.20182 289 ft 178 kts 82°
2026-05-07 19:48 49.20880 -2.18608 279 ft 103 kts 84°
2026-05-07 19:49 49.20903 -2.18190 281 ft 0 kts 120°
2026-05-07 19:49 49.20875 -2.18219 281 ft 13 kts 236°
2026-05-07 19:49 49.20767 -2.18330 281 ft 21 kts 202°
2026-05-07 19:49 49.20740 -2.18455 281 ft 11 kts 264°
2026-05-07 19:50 49.20733 -2.18558 281 ft 19 kts 262°
2026-05-07 19:50 49.20709 -2.18820 281 ft 31 kts 263°
2026-05-07 19:50 49.20683 -2.19196 281 ft 40 kts 271°
2026-05-07 19:50 49.20683 -2.19587 281 ft 30 kts 249°
2026-05-07 19:51 49.20613 -2.19686 283 ft 6 kts 229°
2026-05-07 19:51 49.20577 -2.19704 281 ft 1 kts 176°
2026-05-07 19:51 49.20564 -2.19703 281 ft 0 kts 176°